[Iaude] MPEC B114: 2023 XN [a=0.79,e=0.47,i=8.2,H=23.57]

mpec at marsden.cfa.harvard.edu mpec at marsden.cfa.harvard.edu
Tue Jan 23 09:45:06 EST 2024


M.P.E.C. 2024-B114                             Issued 2024 January 23, 14:43 UT

     The Minor Planet Electronic Circulars contain information on unusual
         minor planets, routine data on comets and natural satellites,
         and occasional editorial announcements.  They are published
    on behalf of Division F of the International Astronomical Union by the
          Minor Planet Center, Smithsonian Astrophysical Observatory,
                          Cambridge, MA 02138, U.S.A.
			  
             Prepared using the Tamkin Foundation Computer Network

                              MPC at CFA.HARVARD.EDU
            URL https://www.minorplanetcenter.net/    ISSN 1523-6714

                                    2023 XN                                     


                           Revision to MPEC 2023-X49                            

Additional Observations:
     K23X00N  C2011 12 02.29893701 30 44.561+04 37 57.91         20.47GVEB114F51
     K23X00N  C2011 12 02.31077401 30 43.472+04 38 37.66         20.15GVEB114F51
     K23X00N  C2016 12 10.43038 06 51 54.24 +34 57 39.8          20.9 VqEB114G96
     K23X00N  C2016 12 10.43475 06 51 52.09 +34 57 51.4                qEB114G96
     K23X00N  C2016 12 10.43915 06 51 49.91 +34 58 03.0          20.8 VqEB114G96
     K23X00N  C2016 12 10.44350 06 51 47.83 +34 58 14.8          21.3 VqEB114G96
     K23X00N  C2016 12 10.48226 06 51 28.85 +34 59 55.2          20.7 VqEB114G96
     K23X00N  C2016 12 10.48353 06 51 28.35 +34 59 58.4          21.1 VqEB114G96
     K23X00N  C2016 12 10.48715 06 51 26.43 +35 00 08.3                qEB114G96
     K23X00N  C2022 01 12.41740411 24 06.701+62 09 21.96         21.34GVEB114F52
     K23X00N KC2022 01 14.46140011 41 05.062+67 22 54.76         21.40GVEB114F52
     K23X00N KC2022 01 15.55978311 54 11.114+70 19 30.50         21.24GVEB114F52

Observer details:
F51 Pan-STARRS 1, Haleakala.  Observers J. Herman, T. Lowe, P. Minguez, A.
    Schultz, I. Smith.  Measurers K. Chambers, T. de Boer, J. Fairlamb, H.
    Gao, M. Huber, C.-C. Lin, E. Magnier, Y. Ramanjooloo, R. Wainscoat, R.
    Weryk.  1.8-m Ritchey-Chretien + CCD.
F52 Pan-STARRS 2, Haleakala.  Observers J. Herman, T. Lowe, P. Minguez, A.
    Schultz, I. Smith.  Measurers K. Chambers, T. de Boer, J. Fairlamb, H.
    Gao, M. Huber, C.-C. Lin, E. Magnier, Y. Ramanjooloo, R. Wainscoat, R.
    Weryk.  1.8-m Ritchey-Chretien + CCD.
G96 Mt. Lemmon Survey.  Observer R. G. Matheny.  Measurers E. J. Christensen,
    D. C. Fuls, A. R. Gibbs, A. D. Grauer, J. A. Johnson, R. A. Kowalski, S.
    M. Larson, G. J. Leonard, R. G. Matheny, R. L. Seaman, F. C. Shelly.
    1.5-m reflector + 10K CCD.

Orbital elements:
2023 XN                                                  Earth MOID = 0.0401 AU
Epoch 2023 Sept. 13.0 TT = JDT 2460200.5                Veres                   
M  10.54668              (2000.0)            P               Q                  
n   1.39606160     Peri.  199.72687     -0.04017394     +0.99040475             
a   0.7928658      Node    68.15393     -0.89655199     +0.02269209             
e   0.4722368      Incl.    8.19018     -0.44111290     -0.13632133             
P   0.71           H   23.57          G   0.15           U   1                  
Residuals in seconds of arc
111202 F51  0.1-  0.1-    231203 F52  0.0   0.0     231207 291  0.3+  0.2+
111202 F51  0.2+  0.2+    231204 H21  0.2+  0.0     231207 291  0.1-  0.3-
161210 G96  0.4-  0.2+    231204 I52  0.1-  0.2-    231213 291  0.2+  0.2-
161210 G96  0.6-  0.3+    231204 H21  0.2+  0.1+    231213 291  0.3+  0.3+
161210 G96  0.9-  0.4+    231204 H21  0.1+  0.1+    231213 291  0.7-  0.0
161210 G96  0.3-  0.8+    231204 I52  0.1+  0.5-    231214 H21  0.2+  0.1+
161210 G96  0.9-  0.4+    231205 807  0.2-  0.4-    231214 H21  0.1+  0.1+
161210 G96  0.5+  0.3+    231205 807  0.7-  0.2+    231216 291  0.3-  0.5+
161210 G96  1.4-  0.9+    231205 807  0.4-  0.1+    231216 291  0.1+  0.0
220112 F52  0.3+  0.8-    231207 I52  0.3-  0.1+    231216 291  0.1-  0.2+
220114 F52  0.4-  0.4+    231207 I52  0.0   0.0     231217 291  0.0   1.6+
220115 F52  0.0   0.2-    231207 I52  1.6+  0.5+    231217 291  0.0   0.2+
231203 F52  0.1-  0.1+    231207 I52  0.5+  0.5-    231217 291  0.2-  0.0
231203 F52  0.1-  0.1+    231207 291  0.0   0.0

Ephemeris:
2023 XN                  a,e,i = 0.79, 0.47, 8                   q = 0.4184
Date    TT    R. A. (2000) Decl.     Delta      r    Elong.  Phase     V
2023 12 24    01 24 37.4 +13 37 59   0.3216  1.1481   113.0    52.1    23.3
...
2024 01 08    01 42 04.4 +17 26 45   0.4436  1.1665   103.0    55.2    24.1
...
2024 01 16    01 53 03.2 +19 06 48   0.5060  1.1668    98.0    56.6    24.5
...
2024 01 22    02 01 56.8 +20 16 33   0.5506  1.1628    94.3    57.6    24.7
2024 01 23    02 03 28.6 +20 27 49   0.5578  1.1617    93.7    57.7    24.7
2024 01 24    02 05 01.3 +20 38 59   0.5649  1.1606    93.0    57.9    24.7
...
2024 01 30    02 14 32.9 +21 44 12   0.6061  1.1516    89.5    58.8    24.9
...
2024 02 07    02 27 55.2 +23 06 52   0.6561  1.1338    84.8    60.0    25.1
...
2024 02 22    02 54 48.6 +25 30 06   0.7306  1.0822    76.4    62.6    25.3

A. U. Tomatic                (C) Copyright 2024 MPC           M.P.E.C. 2024-B114





More information about the Iaude mailing list